Location: Bats
(43.6587°N, 0.4584°W)
Time: 10:50:52
(UTC+00:00)

SJ 16-02 - Pass Details

Date: 12 January 2026
Orbit: 583 x 594 km, 75.0° (Epoch: 11 February)

Event Time Altitude Azimuth Distance (km) Brightness Sun altitude
Rises 17:36:00 0° 341° (NNW) 2,823 4.7 -8.8°
Reaches altitude 10° 17:38:13 10° 343° (NNW) 1,920 3.9 -9.2°
Maximum altitude 17:42:30 82° 70° (ENE) 600 1.2 -9.9°
Drops below altitude 10° 17:46:46 10° 159° (SSE) 1,912 3.9 -10.6°
Sets 17:48:59 0° 161° (SSE) 2,811 4.7 -11.0°
